Overview Statistics Trail Chart Weather Telemetry Raw packets
 

This is the latest recevied weather packets stored in our database for station/object SV9TNF-57. If no packets are shown the sender has not sent any weather packets the latest 10 day(s).

<< 112 113 114 115 >>
Time Temp. Humidity Pressure Rain* Wind** Luminosity Snow
1787810486 31.11° C 42% 995 hPa 0 mm 9.39 m/s, 285° - -
1787810185 31.11° C 44% 994.8 hPa 0 mm 4.92 m/s, 6° - -
1787809885 30.56° C 44% 994.9 hPa 0 mm 1.79 m/s, 277° - -
1787809585 30.56° C 45% 994.9 hPa 0 mm 4.92 m/s, 358° - -
1787809285 30.56° C 45% 994.8 hPa 0 mm 6.26 m/s, 343° - -
1787808985 30.56° C 45% 994.5 hPa 0 mm 0.89 m/s, 316° - -
1787808685 30.56° C 46% 994.5 hPa 0 mm 2.24 m/s, 327° - -
1787808385 30° C 47% 994.6 hPa 0 mm 0.45 m/s, 311° - -
1787808085 29.44° C 48% 994.4 hPa 0 mm 0 m/s - -
1787807785 29.44° C 48% 994.3 hPa 0 mm 4.92 m/s, 289° - -
1787807485 29.44° C 48% 994.4 hPa 0 mm 5.36 m/s, 77° - -
1787807184 28.89° C 49% 994.3 hPa 0 mm 4.92 m/s, 325° - -
1787806884 28.33° C 50% 994.4 hPa 0 mm 1.34 m/s, 358° - -
1787806584 27.78° C 50% 994.5 hPa 0 mm 2.68 m/s, 321° - -
1787806284 27.78° C 52% 994.4 hPa 0 mm 0.45 m/s, 263° - -
1787805984 27.22° C 54% 994.3 hPa 0 mm 0 m/s - -
1787805684 27.22° C 53% 994.1 hPa 0 mm 0 m/s - -
1787805384 27.22° C 54% 994.2 hPa 0 mm 0.89 m/s, 318° - -
1787805083 26.67° C 55% 994.3 hPa 0 mm 0.45 m/s, 271° - -
1787804784 26.67° C 56% 994.2 hPa 0 mm 1.34 m/s, 264° - -
1787804483 26.11° C 56% 994.2 hPa 0 mm 0.45 m/s, 281° - -
1787804183 26.67° C 55% 994.2 hPa 0 mm 0 m/s - -
1787803884 26.11° C 56% 994.1 hPa 0 mm 0 m/s - -
1787803583 26.11° C 56% 994 hPa 0 mm 0 m/s - -

* Rain latest hour (hover to see other rain measurements)
** Current wind speed in m/s (hover to see current wind gust speed)